• In Austria
  • List of Countries
  • For 7 days
  • Water Temperature
  • Satellite Maps
  • Weather Map
  • News
  • Weather Widgets
  • user-avatar
    Login

    Hourly Weather Ondjiwa

    Today, 20 July, Friday

    Time Temperature Precipitation Wind Pressure Humidity
    00:00 +14°C° 0 mm 3 mps 670 mmHg 44%
    01:00 +14°C° 0 mm 3 mps 670 mmHg 46%
    02:00 +13°C° 0 mm 3 mps 669 mmHg 49%
    03:00 +13°C° 0 mm 3 mps 669 mmHg 51%
    04:00 +12°C° 0 mm 3 mps 669 mmHg 53%
    05:00 +12°C° 0 mm 3 mps 669 mmHg 55%
    06:00 +11°C° 0 mm 3 mps 669 mmHg 56%
    07:00 +11°C° 0 mm 3 mps 670 mmHg 57%
    08:00 +15°C° 0 mm 4 mps 670 mmHg 48%
    09:00 +19°C° 0 mm 5 mps 671 mmHg 40%
    10:00 +22°C° 0 mm 6 mps 672 mmHg 31%
    11:00 +24°C° 0 mm 6 mps 672 mmHg 28%
    12:00 +26°C° 0 mm 5 mps 671 mmHg 25%
    13:00 +28°C° 0 mm 5 mps 671 mmHg 22%
    14:00 +28°C° 0 mm 4 mps 670 mmHg 22%
    15:00 +28°C° 0 mm 4 mps 670 mmHg 21%
    16:00 +28°C° 0 mm 3 mps 669 mmHg 21%
    17:00 +25°C° 0 mm 3 mps 669 mmHg 25%
    18:00 +22°C° 0 mm 3 mps 669 mmHg 30%
    19:00 +19°C° 0 mm 2 mps 668 mmHg 34%
    20:00 +18°C° 0 mm 3 mps 669 mmHg 37%
    21:00 +17°C° 0 mm 3 mps 669 mmHg 40%
    22:00 +17°C° 0 mm 3 mps 669 mmHg 43%
    23:00 +16°C° 0 mm 3 mps 669 mmHg 45%

    Tomorrow, 21 July, Saturday

    Time Temperature Precipitation Wind Pressure Humidity
    00:00 +16°C° 0 mm 3 mps 669 mmHg 47%
    01:00 +14°C° 0 mm 3 mps 669 mmHg 49%
    02:00 +13°C° 0 mm 3 mps 669 mmHg 50%
    03:00 +13°C° 0 mm 3 mps 669 mmHg 52%
    04:00 +12°C° 0 mm 3 mps 668 mmHg 53%
    05:00 +12°C° 0 mm 3 mps 669 mmHg 54%
    06:00 +12°C° 0 mm 3 mps 669 mmHg 55%
    07:00 +12°C° 0 mm 3 mps 669 mmHg 56%
    08:00 +15°C° 0 mm 4 mps 670 mmHg 47%
    09:00 +20°C° 0 mm 5 mps 671 mmHg 38%
    10:00 +23°C° 0 mm 6 mps 672 mmHg 29%
    11:00 +26°C° 0 mm 5 mps 672 mmHg 26%
    12:00 +28°C° 0 mm 5 mps 671 mmHg 22%
    13:00 +29°C° 0 mm 4 mps 671 mmHg 19%
    14:00 +29°C° 0 mm 3 mps 670 mmHg 18%
    15:00 +30°C° 0 mm 2 mps 670 mmHg 17%
    16:00 +30°C° 0 mm 2 mps 669 mmHg 16%
    17:00 +27°C° 0 mm 2 mps 669 mmHg 19%
    18:00 +24°C° 0 mm 2 mps 669 mmHg 23%
    19:00 +21°C° 0 mm 2 mps 669 mmHg 26%
    20:00 +20°C° 0 mm 2 mps 669 mmHg 28%
    21:00 +19°C° 0 mm 2 mps 670 mmHg 30%
    22:00 +18°C° 0 mm 3 mps 670 mmHg 33%
    23:00 +17°C° 0 mm 3 mps 670 mmHg 36%

    Day after tomorrow, 22 July, Sunday

    Time Temperature Precipitation Wind Pressure Humidity
    00:00 +17°C° 0 mm 3 mps 670 mmHg 38%
    01:00 +16°C° 0 mm 3 mps 670 mmHg 41%
    02:00 +15°C° 0 mm 4 mps 669 mmHg 42%
    03:00 +15°C° 0 mm 4 mps 669 mmHg 43%
    04:00 +15°C° 0 mm 5 mps 669 mmHg 44%
    05:00 +14°C° 0 mm 4 mps 669 mmHg 45%
    06:00 +14°C° 0 mm 4 mps 670 mmHg 45%
    07:00 +13°C° 0 mm 4 mps 670 mmHg 46%
    08:00 +17°C° 0 mm 5 mps 671 mmHg 39%
    09:00 +21°C° 0 mm 5 mps 672 mmHg 32%
    10:00 +24°C° 0 mm 6 mps 673 mmHg 25%
    11:00 +27°C° 0 mm 5 mps 672 mmHg 22%
    12:00 +29°C° 0 mm 5 mps 672 mmHg 19%
    13:00 +30°C° 0 mm 4 mps 671 mmHg 16%
    14:00 +32°C° 0 mm 4 mps 671 mmHg 15%
    15:00 +31°C° 0 mm 3 mps 671 mmHg 14%
    16:00 +31°C° 0 mm 3 mps 670 mmHg 14%
    17:00 +28°C° 0 mm 3 mps 670 mmHg 17%
    18:00 +25°C° 0 mm 3 mps 670 mmHg 20%
    19:00 +21°C° 0 mm 2 mps 670 mmHg 24%
    20:00 +20°C° 0 mm 3 mps 670 mmHg 26%
    21:00 +20°C° 0 mm 3 mps 670 mmHg 28%
    22:00 +19°C° 0 mm 3 mps 671 mmHg 31%
    23:00 +18°C° 0 mm 3 mps 671 mmHg 33%

    23 July, Monday

    Time Temperature Precipitation Wind Pressure Humidity
    00:00 +17°C° 0 mm 3 mps 670 mmHg 35%
    01:00 +17°C° 0 mm 4 mps 670 mmHg 36%
    02:00 +15°C° 0 mm 4 mps 670 mmHg 38%
    03:00 +15°C° 0 mm 4 mps 670 mmHg 39%
    04:00 +14°C° 0 mm 4 mps 670 mmHg 40%
    05:00 +14°C° 0 mm 4 mps 670 mmHg 41%
    06:00 +14°C° 0 mm 4 mps 671 mmHg 41%
    07:00 +13°C° 0 mm 3 mps 671 mmHg 42%
    08:00 +18°C° 0 mm 4 mps 672 mmHg 35%
    09:00 +21°C° 0 mm 5 mps 673 mmHg 29%
    10:00 +26°C° 0 mm 6 mps 673 mmHg 23%
    11:00 +27°C° 0 mm 5 mps 673 mmHg 20%
    12:00 +29°C° 0 mm 4 mps 672 mmHg 18%
    13:00 +30°C° 0 mm 4 mps 672 mmHg 15%
    14:00 +30°C° 0 mm 3 mps 671 mmHg 15%
    15:00 +30°C° 0 mm 3 mps 671 mmHg 14%
    16:00 +31°C° 0 mm 3 mps 670 mmHg 13%
    17:00 +28°C° 0 mm 3 mps 670 mmHg 16%
    18:00 +25°C° 0 mm 3 mps 670 mmHg 20%
    19:00 +21°C° 0 mm 2 mps 670 mmHg 23%
    20:00 +20°C° 0 mm 2 mps 670 mmHg 25%
    21:00 +19°C° 0 mm 3 mps 670 mmHg 27%
    22:00 +18°C° 0 mm 3 mps 670 mmHg 30%
    23:00 +18°C° 0 mm 3 mps 670 mmHg 32%

    24 July, Tuesday

    Time Temperature Precipitation Wind Pressure Humidity
    00:00 +17°C° 0 mm 3 mps 670 mmHg 34%
    01:00 +16°C° 0 mm 3 mps 670 mmHg 36%
    02:00 +14°C° 0 mm 3 mps 670 mmHg 37%
    03:00 +14°C° 0 mm 3 mps 670 mmHg 39%
    04:00 +13°C° 0 mm 3 mps 670 mmHg 40%
    05:00 +13°C° 0 mm 3 mps 670 mmHg 41%
    06:00 +13°C° 0 mm 3 mps 670 mmHg 42%
    07:00 +13°C° 0 mm 3 mps 671 mmHg 42%
    08:00 +17°C° 0 mm 4 mps 672 mmHg 36%
    09:00 +21°C° 0 mm 5 mps 672 mmHg 30%
    10:00 +26°C° 0 mm 5 mps 673 mmHg 25%
    11:00 +27°C° 0 mm 5 mps 673 mmHg 22%
    12:00 +29°C° 0 mm 4 mps 672 mmHg 19%
    13:00 +30°C° 0 mm 3 mps 671 mmHg 16%
    14:00 +30°C° 0 mm 3 mps 671 mmHg 16%
    15:00 +31°C° 0 mm 3 mps 671 mmHg 15%
    16:00 +31°C° 0 mm 3 mps 670 mmHg 15%
    17:00 +28°C° 0 mm 2 mps 670 mmHg 19%
    18:00 +25°C° 0 mm 2 mps 670 mmHg 23%
    19:00 +23°C° 0 mm 2 mps 670 mmHg 27%
    20:00 +21°C° 0 mm 2 mps 670 mmHg 30%
    21:00 +20°C° 0 mm 2 mps 670 mmHg 32%
    22:00 +19°C° 0 mm 3 mps 670 mmHg 35%
    23:00 +18°C° 0 mm 3 mps 670 mmHg 37%

    25 July, Wednesday

    Time Temperature Precipitation Wind Pressure Humidity
    00:00 +18°C° 0 mm 3 mps 669 mmHg 39%
    01:00 +17°C° 0 mm 3 mps 669 mmHg 41%
    02:00 +16°C° 0 mm 3 mps 669 mmHg 42%
    03:00 +16°C° 0 mm 3 mps 669 mmHg 43%
    04:00 +14°C° 0 mm 3 mps 669 mmHg 44%
    05:00 +14°C° 0 mm 3 mps 669 mmHg 43%
    06:00 +13°C° 0 mm 3 mps 669 mmHg 42%
    07:00 +13°C° 0 mm 3 mps 670 mmHg 42%
    08:00 +18°C° 0 mm 4 mps 670 mmHg 34%
    09:00 +22°C° 0 mm 5 mps 671 mmHg 27%
    10:00 +27°C° 0 mm 5 mps 672 mmHg 19%
    11:00 +28°C° 0 mm 4 mps 671 mmHg 17%
    12:00 +30°C° 0 mm 3 mps 671 mmHg 15%
    13:00 +31°C° 0 mm 3 mps 670 mmHg 13%
    14:00 +31°C° 0 mm 2 mps 670 mmHg 13%
    15:00 +31°C° 0 mm 2 mps 670 mmHg 12%
    16:00 +32°C° 0 mm 1 mps 669 mmHg 11%
    17:00 +29°C° 0 mm 1 mps 669 mmHg 14%
    18:00 +26°C° 0 mm 1 mps 668 mmHg 16%
    19:00 +23°C° 0 mm 2 mps 668 mmHg 19%
    20:00 +21°C° 0 mm 2 mps 668 mmHg 20%
    21:00 +20°C° 0 mm 2 mps 668 mmHg 22%
    22:00 +19°C° 0 mm 2 mps 668 mmHg 23%
    23:00 +18°C° 0 mm 2 mps 668 mmHg 24%
    Show more